This is the latest recevied weather packets stored in our database for station/object W4SNA-3. If no packets are shown the sender has not sent any weather packets the latest 10 day(s).
| Time | Temp. | Humidity | Pressure | Rain* | Wind** | Luminosity | Snow |
|---|---|---|---|---|---|---|---|
| 1777381129 | 7.22° C | 97% | 1018.9 hPa | 0.25 mm | - | - | - |
| 1777380828 | 7.22° C | 96% | 1019.1 hPa | 0.25 mm | - | - | - |
| 1777380528 | 7.22° C | 96% | 1019.1 hPa | 0.25 mm | - | - | - |
| 1777380228 | 7.22° C | 96% | 1019.3 hPa | 0.25 mm | - | - | - |
| 1777379931 | 7.22° C | 96% | 1019.3 hPa | 0.25 mm | - | - | - |
| 1777379592 | 7.22° C | 96% | 1019.4 hPa | 0.25 mm | - | - | - |
| 1777379269 | 7.22° C | 96% | 1019.6 hPa | 0.25 mm | - | - | - |
| 1777378986 | 7.22° C | 96% | 1019.4 hPa | 0.25 mm | - | - | - |
| 1777378537 | 7.78° C | 96% | 1019.9 hPa | 0 mm | - | - | - |
| 1777378241 | 7.78° C | 96% | 1020.2 hPa | 0.25 mm | - | - | - |
| 1777377937 | 7.78° C | 96% | 1020.1 hPa | 0.25 mm | - | - | - |
| 1777377637 | 7.78° C | 96% | 1020 hPa | 0.51 mm | - | - | - |
| 1777377342 | 7.78° C | 96% | 1020.2 hPa | 0.51 mm | - | - | - |
| 1777377041 | 7.78° C | 96% | 1020.4 hPa | 0.76 mm | - | - | - |
| 1777376743 | 7.78° C | 96% | 1020.5 hPa | 1.27 mm | - | - | - |
| 1777376441 | 7.78° C | 97% | 1020.6 hPa | 1.52 mm | - | - | - |
| 1777376137 | 7.78° C | 96% | 1020.7 hPa | 1.78 mm | - | - | - |
| 1777375837 | 7.78° C | 96% | 1020.8 hPa | 2.03 mm | - | - | - |
| 1777375538 | 7.78° C | 96% | 1020.9 hPa | 2.29 mm | - | - | - |
| 1777375237 | 7.78° C | 96% | 1021.1 hPa | 2.79 mm | - | - | - |
| 1777374937 | 7.78° C | 96% | 1021 hPa | 3.05 mm | - | - | - |
| 1777374637 | 7.22° C | 96% | 1021 hPa | 3.05 mm | - | - | - |
| 1777374337 | 7.22° C | 96% | 1021 hPa | 3.3 mm | - | - | - |
| 1777374037 | 7.22° C | 96% | 1021 hPa | 4.32 mm | - | - | - |
| 1777373550 | 7.22° C | 96% | 1020.7 hPa | 4.32 mm | - | - | - |
* Rain latest hour (hover to see other rain measurements)
** Current wind speed in m/s (hover to see current wind gust speed)